EHI
0.2 0.1 0.0 -0.0 -0.1 0.1 0.0 0.2 0.1 0.1 0.2 0.1 0.2 0.4 0.2 0.3 0.4 0.3 0.3 0.4 0.5 0.4 0.2 0.4 0.4 0.5 0.3 0.4 0.5 0.5 0.5 0.6 0.5 0.4 0.3 0.2 0.2 0.2 0.2 0.0 -0.2 0.1 0.6
0.1 0.1 0.1 0.0 -0.1 0.0 0.1 0.2 0.4 0.6 -0.3 -0.2 0.1 0.2 0.2 0.3 0.1 0.4 0.8 0.5 0.2 0.2 0.3 0.3 0.3 0.4 0.3 0.4 0.7 0.5 0.4 0.4 0.4 0.4 0.3 0.1 0.1 0.1 0.1 0.1 0.2 0.4 0.8
0.2 0.0 -0.0 -0.1 -0.1 -0.2 0.1 0.1 0.0 0.2 0.6 0.6 0.1 0.4 0.4 0.7 0.3 0.8 0.5 0.1 0.2 0.4 0.1 0.3 0.2 0.3 0.4 0.5 0.7 0.8 0.6 0.4 0.3 0.3 -0.0 -0.1 -0.0 0.1 0.1 0.1 0.2 0.9 0.9
-0.0 -0.1 0.1 0.1 0.1 0.0 0.0 0.0 -0.1 0.2 0.5 1.1 1.4 1.6 1.1 0.9 0.4 0.0 0.0 0.0 -0.1 0.0 0.3 0.1 0.2 0.2 0.6 0.6 0.7 0.8 0.7 0.5 0.3 0.2 0.0 0.1 0.2 0.1 0.1 0.1 0.2 0.3 0.5
0.2 0.0 0.2 0.2 0.1 0.0 0.1 0.2 -0.0 0.1 0.4 0.7 1.1 1.6 1.1 0.9 0.2 0.1 0.0 0.2 0.4 0.4 -0.1 0.0 0.2 0.7 0.9 0.8 0.4 0.6 0.7 0.5 0.3 0.1 0.0 0.0 0.0 0.4 0.2 0.1 0.1 0.2 0.2
0.4 0.3 0.2 0.0 -0.1 0.1 -0.0 -0.0 0.0 0.2 0.4 0.6 0.7 1.2 1.3 0.9 0.1 0.1 0.0 0.1 0.1 0.4 0.2 0.2 0.3 0.7 0.5 0.6 0.5 0.3 0.5 0.4 0.2 0.0 0.0 0.1 0.0 0.7 0.3 0.2 -0.1 0.1 0.1
0.3 0.2 0.2 0.2 0.1 -0.0 -0.1 0.0 0.1 0.2 0.4 0.5 0.6 0.9 0.8 0.7 0.8 0.7 0.5 0.4 0.2 0.6 0.1 0.2 0.6 0.4 0.3 0.4 0.3 0.3 0.3 0.4 0.1 0.0 0.0 0.0 0.0 0.5 0.3 0.4 0.2 0.4 0.4
0.3 0.1 0.1 0.3 0.2 0.2 0.2 0.2 0.2 0.3 0.4 0.5 0.5 0.8 1.0 0.9 0.7 0.6 0.8 1.4 0.9 0.7 0.7 0.8 0.7 0.4 0.3 0.2 0.3 0.4 0.2 0.4 0.2 0.1 0.0 0.0 0.7 0.7 0.4 0.4 0.7 0.8 0.6
0.2 0.3 0.2 0.2 0.4 0.2 0.2 0.2 0.2 0.3 0.3 0.4 0.5 0.6 0.7 0.8 0.7 0.8 0.4 0.5 1.0 1.2 0.7 0.4 0.3 0.2 0.1 0.2 0.2 0.3 0.3 0.3 0.3 0.4 0.0 0.0 0.9 0.7 0.3 0.3 0.6 0.7 0.6
0.4 0.3 0.3 0.3 0.6 0.6 0.7 0.1 0.1 0.2 0.2 0.3 0.4 0.3 0.3 0.5 0.7 0.1 0.1 0.0 0.0 0.0 0.0 0.2 0.4 0.2 0.1 0.1 0.1 0.1 0.1 0.2 0.2 0.1 0.2 0.1 0.6 0.3 0.3 0.3 0.3 0.6 0.5
0.3 0.3 0.5 0.6 0.7 0.6 0.4 0.2 0.3 0.2 0.1 0.1 0.2 0.1 -0.0 0.2 0.3 0.2 0.0 0.0 0.0 0.0 0.0 0.0 0.0 0.1 0.1 0.0 0.0 0.0 0.0 0.0 0.1 0.3 0.3 0.1 0.2 0.1 0.1 0.4 0.2 0.4 0.5
0.1 0.1 0.1 0.5 0.8 0.7 0.4 0.2 0.6 0.8 0.5 0.4 0.3 0.2 0.1 0.2 0.2 0.2 0.1 0.0 0.0 0.0 0.0 0.0 0.0 0.0 0.1 0.2 0.0 0.0 0.0 0.0 0.0 0.1 0.1 0.2 0.1 0.0 0.0 0.4 0.4 0.3 0.4
0.0 0.0 0.0 0.3 0.6 0.7 0.7 0.3 0.9 0.5 0.2 0.2 0.2 0.1 0.2 0.0 0.0 0.1 0.1 0.1 0.0 0.0 0.0 0.0 0.0 0.0 0.0 0.0 0.0 0.1 0.0 0.0 0.0 0.0 0.0 0.0 0.3 0.1 0.0 0.1 0.5 0.2 0.3
0.0 0.0 0.0 0.1 0.2 0.2 0.1 0.2 0.3 0.2 0.1 0.1 0.2 0.2 0.1 0.1 0.1 0.1 0.1 0.0 0.0 0.0 0.0 0.0 0.0 0.0 -0.0 -0.0 0.0 0.0 0.0 0.0 0.0 0.0 0.0 0.0 0.1 0.0 0.0 0.1 0.2 0.3 0.2
0.0 0.0 0.0 0.0 0.0 0.1 0.0 0.0 0.0 0.0 0.0 0.0 0.0 0.0 0.0 0.0 0.0 0.0 0.0 0.0 0.0 0.0 0.0 0.0 0.0 -0.0 0.0 0.0 -0.0 0.0 0.0 0.1 0.0 0.0 0.0 0.0 0.0 0.0 0.0 0.0 0.1 0.2 0.1
0.0 0.0 0.0 0.0 0.0 0.0 0.0 0.0 0.0 0.0 0.0 0.0 0.0 0.0 0.0 0.0 0.0 0.0 0.0 0.0 0.0 0.0 0.0 0.1 0.1 0.1 0.0 0.0 -0.0 0.0 0.0 0.1 0.1 0.0 0.0 0.0 0.0 0.0 0.0 0.0 0.0 0.1 0.1
0.0 0.0 0.0 0.0 0.0 0.0 0.0 0.0 0.0 0.0 0.0 0.0 0.0 0.0 0.0 0.0 0.0 0.0 0.0 0.0 0.0 0.0 0.0 0.0 0.0 0.0 0.1 0.1 0.0 0.0 0.0 0.0 0.1 0.0 0.0 0.0 0.0 0.0 0.0 0.0 0.0 0.0 0.3
0.0 0.0 0.0 0.0 0.0 0.0 0.0 0.0 0.0 0.0 0.0 0.0 0.0 0.0 0.0 0.0 0.0 0.0 0.0 0.0 0.0 0.0 0.0 0.0 0.0 0.0 0.0 0.0 0.0 0.0 0.0 0.0 0.0 0.0 0.1 0.0 0.0 0.0 0.0 0.0 0.0 0.0 0.1
0.0 0.0 0.0 0.0 0.0 0.0 0.0 0.0 0.0 0.0 0.0 0.0 0.0 0.0 0.0 0.0 0.0 0.0 0.0 0.0 0.0 0.0 0.0 0.0 0.0 0.0 0.0 0.0 0.0 0.0 0.0 0.0 0.1 0.1 0.1 0.1 0.1 0.0 0.0 0.0 0.0 0.0 0.0
0.0 0.0 0.0 0.0 0.0 0.0 0.0 0.0 0.0 0.0 0.0 0.0 0.0 0.0 0.0 0.0 0.0 0.0 0.0 0.0 0.0 0.0 0.0 0.0 0.0 0.0 0.0 0.0 0.0 0.0 0.0 0.0 0.1 0.1 0.1 0.2 0.1 0.0 0.0 0.0 0.0 0.0 0.0
0.0 0.0 0.0 0.0 0.0 0.0 0.0 0.0 0.0 0.0 0.0 0.0 0.0 0.0 0.0 0.0 0.0 0.0 0.0 0.0 0.0 0.0 0.0 0.0 0.0 0.0 0.0 0.0 0.0 0.0 0.0 0.0 0.0 0.2 0.2 0.1 0.1 0.0 0.0 0.0 0.0 0.0 0.0
0.0 0.0 0.0 0.0 0.0 0.0 0.0 0.0 0.0 0.0 0.0 0.0 0.0 0.0 0.0 0.0 0.0 0.0 0.0 0.0 0.0 0.0 0.0 0.0 0.0 0.0 0.0 0.0 0.0 0.0 0.0 0.0 0.0 0.0 0.0 0.2 0.2 0.2 0.0 0.0 0.0 0.0 0.0
0.0 0.0 0.0 0.0 0.0 0.0 0.0 0.0 0.0 0.0 0.0 0.0 0.0 0.0 0.0 0.0 0.0 0.0 0.0 0.0 0.0 0.0 0.0 0.0 0.0 0.0 0.0 0.0 0.0 0.0 0.0 0.0 0.0 0.0 0.0 0.0 0.1 0.2 0.2 0.0 0.0 0.0 0.0
0.0 0.0 0.0 0.0 0.0 0.0 0.0 0.0 0.0 0.0 0.0 0.0 0.0 0.0 0.0 0.0 0.0 0.0 0.0 0.0 0.0 0.0 0.0 0.0 0.0 0.0 0.0 0.0 0.0 0.0 0.0 0.0 0.0 0.0 0.0 0.0 0.0 0.0 0.0 0.0 0.0 0.0 0.0
0.0 0.0 0.0 0.0 0.0 0.0 0.0 0.0 0.0 0.0 0.0 0.0 0.0 0.0 0.0 0.0 0.0 0.0 0.0 0.0 0.0 0.0 0.0 0.1 0.1 0.1 0.0 0.1 0.1 0.0 0.0 0.0 0.0 0.0 0.0 0.0 0.0 0.0 0.0 0.0 0.0 0.1 0.0
0.0 0.0 0.0 0.0 0.0 0.0 0.0 0.0 0.0 0.0 0.0 0.0 0.0 0.0 0.0 0.0 0.0 0.0 0.0 0.0 0.0 0.0 0.0 0.0 0.1 0.1 0.1 0.1 0.1 0.1 0.1 0.1 0.0 0.0 0.0 0.0 0.0 0.0 0.0 0.0 0.0 0.0 0.1